Westminster, MD

3:14 AM EST on February 24, 2017 (GMT -0500)
Carroll County Regional-Poage

Weather History for KDMW - February, 2013

Change the Weather History Date:

Sunday, February 24, 2013

  Actual Average (KTHV) Record (KTHV)
Temperature  
Mean Temperature 36 °F -  
Max Temperature 44 °F 0 °F 62 °F (2016)
Min Temperature 28 °F - -11 °F (2015)
Degree Days  
Heating Degree Days 29    
Moisture  
Dew Point 29 °F    
Average Humidity 73    
Maximum Humidity 100    
Minimum Humidity 43    
Precipitation  
Precipitation 0.00 in - - ()
Sea Level Pressure  
Sea Level Pressure 29.91 in    
Wind  
Wind Speed 6 mph (NW)    
Max Wind Speed 21 mph    
Max Gust Speed 28 mph    
Visibility 7 miles    
Events Fog    
Averages and records for this station are not official NWS values.
T = Trace of Precipitation, MM = Missing Value Source: NWS Daily Summary

Daily Weather History Graph

Daily Weather History Graph

Search for Another Location

Airport or City:

Trip Planner

Search our weather history database for the weather conditions in past years. The results will help you decide how hot, cold, wet, or windy it might be!

Date:

Astronomy

Feb. 24, 2013 Rise Set
Actual Time 6:47 AM EST 5:54 PM EST
Civil Twilight 6:20 AM EST 6:22 PM EST
Nautical Twilight 5:49 AM EST 6:53 PM EST
Astronomical Twilight 5:18 AM EST 7:24 PM EST
Moon 5:03 PM EST 5:43 AM EST
Length of Visible Light 12h 01m
Length of Day
11h 07m
Waxing Gibbous, 99% of the Moon is Illuminated
Feb 24
Waxing Gibbous
Feb 25
Full
Mar 4
Last Quarter
Mar 11
New
Mar 19
First Quarter

Hourly Weather History & Observations

Time (EST) Temp. Windchill Dew Point Humidity Pressure Visibility Wind Dir Wind Speed Gust Speed Precip Events Conditions
12:15 AM 37.4 °F 34.9 °F 35.6 °F 93% 29.81 in 0.2 mi North 3.5 mph - N/A Fog Fog
12:35 AM 37.4 °F 34.9 °F 35.6 °F 93% 29.82 in 0.2 mi North 3.5 mph - N/A Fog Fog
12:55 AM 37.4 °F - 37.4 °F 100% 29.82 in 0.2 mi Calm Calm - N/A Fog Fog
1:15 AM 37.4 °F - 37.4 °F 100% 29.83 in 0.2 mi Calm Calm - N/A Fog Fog
1:35 AM 37.4 °F - 37.4 °F 100% 29.83 in 0.2 mi Calm Calm - N/A Fog Fog
1:55 AM 37.4 °F 34.9 °F 35.6 °F 93% 29.84 in 0.2 mi North 3.5 mph - N/A Fog Fog
2:15 AM 37.4 °F - 35.6 °F 93% 29.83 in 0.2 mi Calm Calm - N/A Fog Fog
2:35 AM 37.4 °F - 35.6 °F 93% 29.82 in 0.2 mi Calm Calm - N/A Fog Fog
2:55 AM 37.4 °F - 37.4 °F 100% 29.81 in 0.2 mi Calm Calm - N/A Fog Fog
3:15 AM 37.4 °F - 35.6 °F 93% 29.80 in 0.2 mi Calm Calm - N/A Fog Fog
3:35 AM 37.4 °F - 35.6 °F 93% 29.80 in 0.2 mi Calm Calm - N/A Fog Fog
3:55 AM 37.4 °F - 35.6 °F 93% 29.78 in 0.2 mi Calm Calm - N/A Fog Fog
4:15 AM 37.4 °F 34.9 °F 35.6 °F 93% 29.79 in 0.2 mi NNW 3.5 mph - N/A Fog Fog
4:55 AM 37.4 °F - 37.4 °F 100% 29.80 in 0.2 mi Calm Calm - N/A Fog Fog
5:15 AM 37.4 °F 34.9 °F 37.4 °F 100% 29.81 in 0.2 mi NW 3.5 mph - N/A Fog Fog
5:35 AM 37.4 °F 34.9 °F 35.6 °F 93% 29.82 in 0.2 mi WNW 3.5 mph - N/A Fog Fog
5:55 AM 37.4 °F 32.1 °F 35.6 °F 93% 29.83 in 0.2 mi NW 6.9 mph - N/A Fog Fog
6:15 AM 37.4 °F 32.1 °F 37.4 °F 100% 29.83 in 0.2 mi NW 6.9 mph - N/A Fog Fog
6:35 AM 37.4 °F 32.8 °F 35.6 °F 93% 29.83 in 0.2 mi NW 5.8 mph - N/A Fog Fog
6:55 AM 37.4 °F 32.1 °F 35.6 °F 93% 29.83 in 0.2 mi NW 6.9 mph - N/A Fog Fog
7:15 AM 37.4 °F 34.9 °F 35.6 °F 93% 29.83 in 0.2 mi NW 3.5 mph - N/A Fog Fog
7:35 AM 35.6 °F - 35.6 °F 100% 29.84 in 0.5 mi Calm Calm - N/A Fog Fog
7:55 AM 35.6 °F - 35.6 °F 100% 29.84 in 0.2 mi Calm Calm - N/A Fog Fog
8:15 AM 37.4 °F - 35.6 °F 93% 29.84 in 2.5 mi Calm Calm - N/A   Scattered Clouds
8:35 AM 37.4 °F 33.8 °F 37.4 °F 100% 29.84 in 7.0 mi NW 4.6 mph - N/A   Clear
8:55 AM 39.2 °F 32.5 °F 37.4 °F 93% 29.85 in 10.0 mi NW 10.4 mph - N/A   Clear
9:15 AM 39.2 °F 32.5 °F 37.4 °F 93% 29.86 in 10.0 mi WNW 10.4 mph - N/A   Clear
9:35 AM 41.0 °F 33.5 °F 37.4 °F 87% 29.86 in 10.0 mi NW 13.8 mph 20.7 mph N/A   Clear
9:55 AM 41.0 °F 33.9 °F 33.8 °F 76% 29.87 in 10.0 mi WNW 12.7 mph 19.6 mph N/A   Clear
10:15 AM 41.0 °F 38.0 °F 33.8 °F 76% 29.87 in 10.0 mi NNW 4.6 mph - N/A   Mostly Cloudy
10:35 AM 41.0 °F 35.2 °F 30.2 °F 65% 29.88 in 10.0 mi NW 9.2 mph - N/A   Scattered Clouds
10:55 AM 42.8 °F 36.2 °F 30.2 °F 61% 29.89 in 10.0 mi WNW 12.7 mph 19.6 mph N/A   Scattered Clouds
11:15 AM 42.8 °F 36.2 °F 28.4 °F 57% 29.89 in 10.0 mi WNW 12.7 mph 20.7 mph N/A   Mostly Cloudy
11:35 AM 42.8 °F 36.6 °F 28.4 °F 57% 29.88 in 10.0 mi WNW 11.5 mph 21.9 mph N/A   Mostly Cloudy
11:55 AM 42.8 °F 36.6 °F 26.6 °F 53% 29.89 in 10.0 mi WNW 11.5 mph 16.1 mph N/A   Scattered Clouds
12:15 PM 42.8 °F 35.1 °F 24.8 °F 49% 29.89 in 10.0 mi WNW 16.1 mph 24.2 mph N/A   Scattered Clouds
12:35 PM 42.8 °F 35.4 °F 24.8 °F 49% 29.88 in 10.0 mi West 15.0 mph 20.7 mph N/A   Scattered Clouds
12:55 PM 44.6 °F 36.9 °F 24.8 °F 46% 29.87 in 10.0 mi West 18.4 mph 24.2 mph N/A   Scattered Clouds
1:15 PM 44.6 °F 37.2 °F 24.8 °F 46% 29.87 in 10.0 mi WNW 17.3 mph 24.2 mph N/A   Clear
1:35 PM 42.8 °F 36.2 °F 23.0 °F 46% 29.87 in 10.0 mi WNW 12.7 mph 24.2 mph N/A   Scattered Clouds
1:55 PM 44.6 °F 36.4 °F 23.0 °F 43% 29.87 in 10.0 mi West 20.7 mph 26.5 mph N/A   Mostly Cloudy
2:15 PM 42.8 °F 36.6 °F 24.8 °F 49% 29.88 in 10.0 mi NW 11.5 mph 20.7 mph N/A   Mostly Cloudy
2:35 PM 42.8 °F 36.2 °F 24.8 °F 49% 29.88 in 10.0 mi NNW 12.7 mph 20.7 mph N/A   Overcast
2:55 PM 42.8 °F 36.6 °F 24.8 °F 49% 29.89 in 10.0 mi NW 11.5 mph 23.0 mph N/A   Mostly Cloudy
3:15 PM 39.2 °F 31.6 °F 23.0 °F 52% 29.91 in 10.0 mi NNW 12.7 mph 20.7 mph N/A   Overcast
3:35 PM 39.2 °F 30.2 °F 21.2 °F 49% 29.92 in 10.0 mi NW 17.3 mph 24.2 mph N/A   Overcast
3:55 PM 39.2 °F 30.2 °F 23.0 °F 52% 29.93 in 10.0 mi WNW 17.3 mph 23.0 mph N/A   Overcast
4:15 PM 39.2 °F 29.6 °F 21.2 °F 49% 29.94 in 10.0 mi WNW 19.6 mph 24.2 mph N/A   Overcast
4:35 PM 37.4 °F 28.2 °F 21.2 °F 52% 29.95 in 10.0 mi WNW 16.1 mph 24.2 mph N/A   Overcast
4:55 PM 37.4 °F 28.9 °F 21.2 °F 52% 29.95 in 10.0 mi WNW 13.8 mph 23.0 mph N/A   Overcast
5:15 PM 37.4 °F 28.5 °F 21.2 °F 52% 29.97 in 10.0 mi WNW 15.0 mph 24.2 mph N/A   Overcast
5:35 PM 35.6 °F 25.9 °F 23.0 °F 60% 29.98 in 10.0 mi WNW 16.1 mph 27.6 mph N/A   Mostly Cloudy
5:55 PM 35.6 °F 28.6 °F 21.2 °F 56% 29.99 in 10.0 mi WNW 9.2 mph 18.4 mph N/A   Scattered Clouds
6:15 PM 33.8 °F 25.3 °F 21.2 °F 60% 30.00 in 10.0 mi WNW 11.5 mph 24.2 mph N/A   Overcast
6:35 PM 33.8 °F 25.3 °F 21.2 °F 60% 30.01 in 10.0 mi WNW 11.5 mph 20.7 mph N/A   Overcast
6:55 PM 33.8 °F 25.3 °F 23.0 °F 65% 30.02 in 10.0 mi NW 11.5 mph 17.3 mph N/A   Overcast
7:15 PM 33.8 °F 25.8 °F 21.2 °F 60% 30.03 in 10.0 mi NW 10.4 mph 20.7 mph N/A   Overcast
7:35 PM 33.8 °F 26.4 °F 21.2 °F 60% 30.04 in 10.0 mi WNW 9.2 mph 16.1 mph N/A   Mostly Cloudy
7:55 PM 32.0 °F 23.0 °F 21.2 °F 64% 30.05 in 10.0 mi WNW 11.5 mph 19.6 mph N/A   Scattered Clouds
8:15 PM 32.0 °F 24.8 °F 21.2 °F 64% 30.05 in 10.0 mi WNW 8.1 mph 18.4 mph N/A   Clear
8:35 PM 32.0 °F 23.0 °F 21.2 °F 64% 30.06 in 10.0 mi WNW 11.5 mph 16.1 mph N/A   Clear
9:00 PM 30.2 °F 22.6 °F 21.2 °F 69% 30.07 in 10.0 mi West 8.1 mph - N/A   Clear
9:20 PM 30.2 °F 21.9 °F 21.2 °F 69% 30.07 in 10.0 mi WNW 9.2 mph - N/A   Clear
9:40 PM 30.2 °F 22.6 °F 21.2 °F 69% 30.07 in 10.0 mi WNW 8.1 mph - N/A   Clear
10:00 PM 30.2 °F 22.6 °F 21.2 °F 69% 30.08 in 10.0 mi WNW 8.1 mph - N/A   Clear
10:20 PM 30.2 °F 21.9 °F 21.2 °F 69% 30.08 in 10.0 mi WNW 9.2 mph - N/A   Clear
10:40 PM 30.2 °F 23.4 °F 21.2 °F 69% 30.08 in 10.0 mi WNW 6.9 mph - N/A   Clear
11:00 PM 28.4 °F 20.4 °F 21.2 °F 74% 30.08 in 10.0 mi West 8.1 mph - N/A   Scattered Clouds
11:20 PM 30.2 °F 22.6 °F 21.2 °F 69% 30.08 in 10.0 mi West 8.1 mph - N/A   Clear
11:40 PM 28.4 °F 20.4 °F 19.4 °F 69% 30.08 in 10.0 mi West 8.1 mph - N/A   Scattered Clouds